If you wish to contribute or participate in the discussions about articles you are invited to join SKYbrary as a registered user

Tromso/Langnes

From SKYbrary Wiki
ENTC
Airport
ICAO: ENTC
Summary
Name Tromso/Langnes
Region Europe
Territory Norway NO.gif
Location Tromso, Norway
Serving
Coordinates 69° 40' 54", 18° 55' 6"
Runways
Designator Length Width Surface
1/19 2392 m7,847.769 ft 45 m147.638 ft ASP
METAR
Observation ENTC 271920Z 02013KT 9999 BKN059 11/03 Q1004 NOSIG RMK WIND 2600FT 10010KT
Station Tromso / Langnes
Date/Time 27 May 2015 19:20:00
Wind direction 20°
Wind speed 13 kts
Lowest cloud amount broken clouds
Temperature 11°C
Dew point 3°C
Humidity 57%
QNH 1004 hPa
Weather condition n/a


Tromsø Airport

ICAO: ENTC IATA: TOS

Description

International airport serving city of Tromso in northern Norway.

Climatology

Borderline Subpolar Oceanic/Continental subarctic climate (because of winter temperatures) (Köppen climate classification Cfc/Dfc) - uniform precipitation distribution, temperatures are moderated by the proximity of the ocean and warm currents - cool summers and comparatively mild winters.

Tromso has a reputation for heavy snowfalls in winter.

Maps

Terrain

Loading map...

Airport Layout

Loading map...


Accidents & Serious Incidents at or in vicinity of ENTC

None on SKYbrary